User: anonymous   Login
Location: Unspecified
(0.0000°N, 0.0000°E)
Time: 18:02:22
(UTC+00:00)
Language:

STARLINK-4374 - Orbit

View from above orbital plane
View from above orbital plane
View from above satellite
View from above satellite

Ground track
Ground track

The orbit is defined by the following mean orbital elements,

1 53652U          26145.37487027 +.00000000 +00000-0 +52853-4 0 00007
2 53652  97.4460  25.3073 0001839  73.6125 286.5304 15.05664488    03
Epoch (UTC): 25 May 2026 08:59:48
Eccentricity: 0.0001839
inclination: 97.4460°
perigee height: 548 km
apogee height: 551 km
right ascension of ascending node: 25.3073°
argument of perigee: 73.6125°
revolutions per day: 15.05664488
mean anomaly at epoch: 286.5304°

The dashed part of the orbit path shows where the satellite is in the earth's shadow,  

DLR